(232520) = 2003 RG15

Discovered at Haleakala on 2003-09-15 by NEAT.

Orbit

Orbit type: Main Belt

Note: WebGL enabled browser required.

epoch2023-09-13.0
epoch JD2460200.5
perihelion date2025-01-14.87763
perihelion JD2460690.37763
argument of perihelion (°)141.41100
ascending node (°)229.27724
inclination (°)13.72782
eccentricity0.0751498
perihelion distance (AU)2.8013323
Tisserand w.r.t. Jupiter3.2
ΔV w.r.t. Earth (km/sec)11.3
semimajor axis (AU)3.0289581
mean anomaly (°)268.40926
mean daily motion (°/day)0.18696660
aphelion distance (AU)3.257
period (years)5.27
P-vector [x]0.96914749
P-vector [y]0.12194778
P-vector [z]0.21420057
Q-vector [x]-0.16854282
Q-vector [y]0.96198366
Q-vector [z]0.21489709
absolute magnitude15.8
phase slope0.15
uncertainty0
referenceMPEC 2023-N62
observations used312
oppositions15
arc length (days)7261
first opposition used2003
last opposition used2023
residual rms (arc-secs)0.70
perturbers coarse indicatorM-v
perturbers precise indicator003Ek
first observation date used2003-08-25.0
last observation date used2023-07-12.0
computer nameMPCLINUX
JD of orbit computation2456966.926210
perihelion JD uncertainty (days)1.2955E-04
argument of perihelion uncertainty (°)2.9006E-05
ascending node uncertainty (°)1.4683E-05
inclination uncertainty (°)4.2997E-06
eccentricity uncertainty 3.7122E-08
perihelion distance uncertainty (AU)1.1367E-07
Minimum Orbit Intersection Distances (in AU)
for orbit epoch: 2460000.5, reference: E2023-N62
Mercury2.46156
Venus2.09304
Earth1.81632
Mars1.37264
Jupiter2.14616
Saturn6.12468
Uranus15.2836
Neptune27.0405

Observations

317 total observations over interval: 2003 08 25.25278 – 2023 07 12.317436
These data are available for download (format description).

Date (UT) J2000 RA J2000 Dec Magn Location Ref
2003 08 25.25278 23 24 01.13 +15 47 06.5 19.5   644 – Palomar Mountain/NEAT MPS 96619
2003 08 25.33278 23 23 58.18 +15 46 53.6 19.4   644 – Palomar Mountain/NEAT MPS 96619
2003 08 25.39571 23 23 55.86 +15 46 43.2 19.6   644 – Palomar Mountain/NEAT MPS 96619
2003 09 15.51025 23 09 38.65 +13 57 19.9 20.6   608 – Haleakala-AMOS MPS 84607
2003 09 15.52059 23 09 38.18 +13 57 15.3 20.4   608 – Haleakala-AMOS MPS 84607
2003 09 15.53124 23 09 37.76 +13 57 11.2 20.3   608 – Haleakala-AMOS MPS 84607
2003 09 16.25155 23 09 07.80 +13 51 51.7 19.9   644 – Palomar Mountain/NEAT MPS 84607
2003 09 16.25403 23 09 07.66 +13 51 50.1 19.2   644 – Palomar Mountain/NEAT MPS 84607
2003 09 16.32252 23 09 04.70 +13 51 20.0 19.5   644 – Palomar Mountain/NEAT MPS 84607
2003 09 16.32499 23 09 04.58 +13 51 18.8 19.3   644 – Palomar Mountain/NEAT MPS 84607
2003 09 16.38712 23 09 01.89 +13 50 51.6 19.9   644 – Palomar Mountain/NEAT MPS 84607
2003 09 16.39106 23 09 01.72 +13 50 48.9 19.5   644 – Palomar Mountain/NEAT MPS 84607
2003 10 05.11780 22 57 39.75 +11 11 27.2 20.8 V 691 – Steward Observatory, Kitt Peak-Spacewatch MPS 96619
2003 10 05.14520 22 57 38.92 +11 11 12.4 21.2 V 691 – Steward Observatory, Kitt Peak-Spacewatch MPS 96619
2003 10 05.17287 22 57 38.10 +11 10 57.0 20.5 V 691 – Steward Observatory, Kitt Peak-Spacewatch MPS 96619
2006 01 07.462856 11 15 20.206 -12 01 11.89 21.22 V 645 – Apache Point-Sloan Digital Sky Survey MPS 390361
2006 01 07.466328 11 15 20.213 -12 01 12.83 21.81   645 – Apache Point-Sloan Digital Sky Survey MPS 390361
2006 01 29.417196 11 11 45.049 -13 00 02.16 21.30 V 645 – Apache Point-Sloan Digital Sky Survey MPS 390361
2006 01 29.420668 11 11 44.964 -13 00 02.43 22.02   645 – Apache Point-Sloan Digital Sky Survey MPS 390361
2007 06 09.28426 15 30 19.46 -14 45 08.3 20.2 V 691 – Steward Observatory, Kitt Peak-Spacewatch MPS 210706
2007 06 09.30193 15 30 18.74 -14 45 02.5 20.0 V 691 – Steward Observatory, Kitt Peak-Spacewatch MPS 210706
2007 06 09.31960 15 30 18.08 -14 44 57.1 20.1 V 691 – Steward Observatory, Kitt Peak-Spacewatch MPS 210706
2007 06 10.29499 15 29 41.59 -14 39 54.8   291 – LPL/Spacewatch II MPS 210706
2007 06 10.30112 15 29 41.34 -14 39 53.0   291 – LPL/Spacewatch II MPS 210706
2007 06 10.30752 15 29 41.12 -14 39 51.1   291 – LPL/Spacewatch II MPS 210706
2007 06 13.28394 15 27 55.37 -14 25 02.0 20.6 V 691 – Steward Observatory, Kitt Peak-Spacewatch MPS 210706
2007 06 13.30167 15 27 54.78 -14 24 56.4 20.5 V 691 – Steward Observatory, Kitt Peak-Spacewatch MPS 210706
2007 06 13.31934 15 27 54.13 -14 24 51.8 20.7 V 691 – Steward Observatory, Kitt Peak-Spacewatch MPS 210706
2008 07 28.26177 21 38 40.48 +07 32 51.2 19.4 V G96 – Mt. Lemmon Survey MPS 252912
2008 07 28.26662 21 38 40.27 +07 32 50.1 20.5 V G96 – Mt. Lemmon Survey MPS 252912
2008 07 28.27149 21 38 40.09 +07 32 50.1 19.9 V G96 – Mt. Lemmon Survey MPS 252912
2008 07 28.27638 21 38 39.91 +07 32 50.4 20.5 V G96 – Mt. Lemmon Survey MPS 252912
2008 08 05.86585 21 32 43.68 +07 24 08.3 20.0 V A13 – Observatoire Naef, Ependes MPS 253504
2008 08 05.89138 21 32 42.53 +07 24 05.8 19.5 V A13 – Observatoire Naef, Ependes MPS 253504
2008 08 09.94093 21 29 42.91 +07 14 28.0 19.8 V A13 – Observatoire Naef, Ependes MPS 253991
2008 08 09.97369 21 29 41.38 +07 14 21.1 20.5 V A13 – Observatoire Naef, Ependes MPS 253991
2009 09 20.43410 04 37 43.57 +21 34 53.2 21.1 V G96 – Mt. Lemmon Survey MPS 295783
2009 09 20.44304 04 37 43.78 +21 34 52.2 20.7 V G96 – Mt. Lemmon Survey MPS 295783
2009 09 20.44999 04 37 43.93 +21 34 50.6 20.8 V G96 – Mt. Lemmon Survey MPS 295783
2009 09 20.45691 04 37 44.11 +21 34 49.6 20.8 V G96 – Mt. Lemmon Survey MPS 295783
2009 11 10.28602 04 29 33.74 +17 26 35.1 19.9 V 691 – Steward Observatory, Kitt Peak-Spacewatch MPS 302136
2009 11 10.30322 04 29 32.96 +17 26 28.4 19.9 V 691 – Steward Observatory, Kitt Peak-Spacewatch MPS 302136
2009 11 10.32044 04 29 32.18 +17 26 21.7 19.8 V 691 – Steward Observatory, Kitt Peak-Spacewatch MPS 302136
2009 11 18.19455 04 23 21.53 +16 34 24.1 19.6 V 691 – Steward Observatory, Kitt Peak-Spacewatch MPS 303243
2009 11 18.21219 04 23 20.62 +16 34 17.1 19.9 V 691 – Steward Observatory, Kitt Peak-Spacewatch MPS 303243
2009 11 18.22982 04 23 19.72 +16 34 10.4 19.8 V 691 – Steward Observatory, Kitt Peak-Spacewatch MPS 303243
2009 11 22.23529 04 19 58.04 +16 07 41.5 20.1 V 691 – Steward Observatory, Kitt Peak-Spacewatch MPS 304826
2009 11 22.25297 04 19 57.13 +16 07 35.1 20.2 V 691 – Steward Observatory, Kitt Peak-Spacewatch MPS 304826
2009 11 22.27065 04 19 56.21 +16 07 27.9 20.0 V 691 – Steward Observatory, Kitt Peak-Spacewatch MPS 304826
2009 11 23.39891 04 18 58.39 +16 00 03.3 19.3 V G96 – Mt. Lemmon Survey MPS 304826
2009 11 23.40354 04 18 58.14 +16 00 01.4 19.4 V G96 – Mt. Lemmon Survey MPS 304826
2009 11 23.40817 04 18 57.92 +15 59 59.5 19.4 V G96 – Mt. Lemmon Survey MPS 304826
2009 11 23.41282 04 18 57.67 +15 59 57.5 19.3 V G96 – Mt. Lemmon Survey MPS 304826
2009 11 23.96656 04 18 29.50 +15 56 20.3 19.4 V J75 – OAM Observatory, La Sagra MPS 304826
2009 11 23.97946 04 18 28.90 +15 56 15.0 19.0 V J75 – OAM Observatory, La Sagra MPS 304826
2009 11 23.99234 04 18 28.16 +15 56 09.8 18.8 V J75 – OAM Observatory, La Sagra MPS 304826
2009 12 11.32674 04 04 13.22 +14 11 18.0 20.5 V 703 – Catalina Sky Survey MPS 307252
2009 12 11.33472 04 04 12.79 +14 11 13.7 20.1 V 703 – Catalina Sky Survey MPS 307252
2009 12 11.34263 04 04 12.39 +14 11 11.0 19.2 V 703 – Catalina Sky Survey MPS 307252
2009 12 11.35059 04 04 12.14 +14 11 08.2 19.3 V 703 – Catalina Sky Survey MPS 307252
2010 02 13.504743 04 00 35.43 +12 37 36.9   C51 – WISE MPS 313070
2010 02 13.637047 04 00 40.53 +12 37 50.9   C51 – WISE MPS 313070
2010 02 13.769479 04 00 45.68 +12 38 04.2   C51 – WISE MPS 313070
2010 02 13.901782 04 00 50.80 +12 38 17.6   C51 – WISE MPS 313070
2010 02 13.967872 04 00 53.40 +12 38 24.8   C51 – WISE MPS 313071
2010 02 13.967999 04 00 53.39 +12 38 25.5   C51 – WISE MPS 313071
2010 02 14.034087 04 00 55.99 +12 38 31.9   C51 – WISE MPS 313071
2010 02 14.100303 04 00 58.61 +12 38 38.7   C51 – WISE MPS 313071
2010 02 14.166391 04 01 01.17 +12 38 45.9   C51 – WISE MPS 313071
2010 02 14.232606 04 01 03.73 +12 38 52.8   C51 – WISE MPS 331845
2010 02 14.364911 04 01 08.93 +12 39 06.6   C51 – WISE MPS 313071
2010 02 14.497215 04 01 14.20 +12 39 20.8   C51 – WISE MPS 313071
2010 02 14.629647 04 01 19.41 +12 39 35.0   C51 – WISE MPS 313071
2011 02 12.32293 09 35 31.38 -06 16 36.2 20.7 V G96 – Mt. Lemmon Survey MPS 371348
2011 02 12.32926 09 35 31.05 -06 16 34.3 21.1 V G96 – Mt. Lemmon Survey MPS 371348
2011 02 12.33562 09 35 30.80 -06 16 33.2 20.4 V G96 – Mt. Lemmon Survey MPS 371348
2011 02 12.34200 09 35 30.48 -06 16 31.5 20.8 V G96 – Mt. Lemmon Survey MPS 371348
2012 01 30.63248 14 30 43.934 -21 17 12.23 21.5 w F51 – Pan-STARRS 1, Haleakala MPS 411380
2012 01 30.64178 14 30 44.306 -21 17 13.59 21.3 w F51 – Pan-STARRS 1, Haleakala MPS 411380
2012 01 30.64640 14 30 44.496 -21 17 14.48 21.3 w F51 – Pan-STARRS 1, Haleakala MPS 411380
2012 04 28.28567 14 20 05.31 -18 02 18.8 19.9 V G96 – Mt. Lemmon Survey MPS 423582
2012 04 28.29249 14 20 05.02 -18 02 16.6 19.8 V G96 – Mt. Lemmon Survey MPS 423582
2012 04 28.29941 14 20 04.66 -18 02 13.3 20.2 V G96 – Mt. Lemmon Survey MPS 423582
2012 04 28.30634 14 20 04.38 -18 02 10.1 20.1 V G96 – Mt. Lemmon Survey MPS 423582
2012 04 29.31964 14 19 18.55 -17 54 51.3 20.1 V G96 – Mt. Lemmon Survey MPS 423582
2012 04 29.32173 14 19 18.48 -17 54 50.5 20.1 V G96 – Mt. Lemmon Survey MPS 423582
2012 04 29.32380 14 19 18.33 -17 54 49.6 20.0 V G96 – Mt. Lemmon Survey MPS 423582
2012 04 29.32589 14 19 18.26 -17 54 48.9 20.2 V G96 – Mt. Lemmon Survey MPS 423582
2012 05 17.36163 14 06 44.890 -15 43 15.34 20.7 w F51 – Pan-STARRS 1, Haleakala MPS 424806
2012 05 17.37574 14 06 44.364 -15 43 09.47 20.8 w F51 – Pan-STARRS 1, Haleakala MPS 424806
2012 05 17.38985 14 06 43.830 -15 43 03.42 20.8 w F51 – Pan-STARRS 1, Haleakala MPS 424806
2012 05 17.40395 14 06 43.295 -15 42 57.40 20.8 w F51 – Pan-STARRS 1, Haleakala MPS 424806
2012 05 24.05898 14 03 02.33 -14 57 30.0 18.9 H W91 – VHS-VISTA, Cerro Paranal MPS 678197
